Wind_Speed
36 34 30 28 25 32 34 31 29 26 18 17 16 16 14 13 6 6 10 15 17 14 17 17 16 12 15 16 12 16 16 14 16 15 14 13 8 8 8 8 6 6 8
38 35 30 28 27 30 35 33 30 25 18 17 15 16 15 12 7 8 10 17 15 17 16 19 17 15 16 16 18 21 20 19 19 18 15 9 10 10 9 7 7 8 9
35 33 33 30 28 30 36 35 32 24 20 16 15 19 16 12 7 6 7 6 8 13 20 20 18 14 16 18 18 13 6 4 6 7 7 8 8 8 7 6 7 5 6
34 35 34 27 29 30 36 34 32 26 19 15 18 21 18 11 8 8 8 7 6 8 19 26 22 17 11 6 4 3 5 5 6 5 6 6 7 6 5 5 4 5 9
33 33 28 23 25 27 33 33 32 25 18 16 21 24 20 13 9 8 7 7 7 6 9 15 15 12 9 9 7 5 4 4 3 4 7 7 6 4 4 6 6 6 8
38 34 31 24 23 23 31 34 32 25 20 18 23 24 19 14 11 9 7 9 7 8 11 16 17 14 13 11 8 7 6 7 5 5 7 7 5 4 6 5 5 8 9
39 39 33 28 29 25 29 31 29 25 21 25 28 28 22 16 13 11 10 12 9 9 13 19 16 13 12 7 7 4 4 6 5 5 6 5 5 5 5 5 5 10 12
39 41 38 34 28 28 27 28 26 24 24 30 29 32 25 18 17 13 13 13 11 13 14 12 8 5 5 4 4 5 4 5 8 7 2 1 2 6 7 8 9 13 17
41 41 41 38 32 33 30 30 27 25 26 33 31 35 27 21 21 17 15 12 16 20 17 12 5 7 8 5 5 4 5 7 4 3 5 6 6 8 9 10 11 15 18
42 42 44 40 36 32 34 32 30 28 30 34 35 28 29 20 23 20 17 14 15 17 17 11 8 10 3 1 3 8 9 9 6 7 8 7 7 10 9 8 12 16 21
44 42 44 43 40 36 36 36 32 31 34 40 37 33 30 27 20 21 21 19 19 22 16 12 10 13 10 8 6 5 11 9 8 9 8 8 8 7 9 13 17 20 20
44 42 47 47 44 40 39 38 34 34 36 40 41 33 33 28 27 27 25 23 22 23 20 17 16 16 14 13 10 9 10 14 14 12 11 10 9 12 14 18 20 18 20
50 45 50 50 47 44 42 41 38 39 41 40 39 37 40 36 34 27 31 25 21 24 20 18 20 20 23 19 17 15 14 15 15 11 11 11 15 16 17 18 19 19 19
56 50 52 54 51 49 47 45 41 43 44 41 34 43 32 37 35 35 30 29 28 28 25 23 26 23 20 16 16 13 11 15 16 14 15 17 18 18 16 22 22 21 19
62 56 54 57 55 53 52 49 46 45 48 42 36 34 42 38 40 39 33 38 39 37 26 23 23 19 21 19 19 17 16 16 18 18 20 18 17 18 21 22 23 25 19
69 63 58 60 59 56 56 53 51 47 49 46 37 40 45 44 38 36 32 29 35 33 29 28 24 23 23 21 25 21 15 20 20 21 19 17 19 21 23 22 22 22 21
73 66 62 61 63 59 59 58 56 52 50 48 42 46 37 35 43 48 35 36 37 30 30 28 27 27 27 24 24 22 23 22 23 23 19 19 22 24 24 25 23 23 24
76 70 69 63 66 63 60 59 59 57 54 52 48 49 43 50 36 42 36 40 34 34 33 31 34 33 32 28 28 29 30 26 28 23 20 19 19 24 26 28 22 23 26
77 73 69 67 68 68 63 62 60 61 59 54 54 49 49 49 48 45 46 41 47 40 37 35 34 30 31 27 27 27 24 31 30 24 21 23 23 26 27 23 23 27 26
75 76 73 72 69 69 66 65 63 63 63 61 56 54 52 45 40 51 45 37 42 43 45 40 34 30 31 30 25 25 25 28 30 30 26 25 28 28 29 28 24 29 30
78 79 77 74 72 72 71 66 68 64 67 66 61 63 57 55 55 49 43 48 44 40 40 43 43 34 33 28 25 26 25 27 31 30 31 31 31 32 32 35 28 32 35
85 80 81 76 73 73 73 70 67 67 64 68 65 61 66 57 60 51 51 46 45 45 53 50 44 38 38 35 28 28 28 31 32 32 30 33 34 33 36 38 31 35 36
90 87 87 83 76 75 74 75 69 69 67 68 70 64 70 55 57 53 58 54 50 43 42 42 40 41 41 39 35 33 32 33 36 37 36 37 35 32 35 40 32 35 39
96 92 90 89 83 79 77 78 74 73 74 75 73 71 64 62 57 62 57 66 59 53 51 49 42 45 46 43 38 37 37 38 40 42 41 42 34 37 37 39 35 39 42
101 98 93 94 89 80 79 76 77 73 75 75 75 75 65 72 61 57 55 60 62 55 58 48 45 48 47 44 38 42 41 42 45 45 46 37 33 39 43 42 39 42 44
103 102 98 98 92 88 76 75 79 76 78 76 77 77 78 73 72 60 57 62 64 66 64 57 58 52 41 43 42 46 48 47 44 39 40 36 40 43 44 44 42 44 45
Wind_Direction
254 257 252 252 260 248 234 233 235 239 251 267 268 246 232 222 207 192 218 256 244 238 215 200 222 258 282 285 261 254 262 257 248 248 256 276 237 235 223 211 228 243 259
250 255 258 256 262 254 229 231 232 240 247 264 256 229 219 206 183 184 223 237 242 232 203 220 232 261 270 274 272 274 268 250 249 255 260 224 229 215 216 233 249 261 277
248 249 254 259 257 249 225 230 234 238 245 254 238 217 215 199 185 195 228 235 234 229 208 225 239 256 263 265 268 266 263 226 210 190 197 204 206 222 235 237 239 261 293
234 244 252 258 252 242 225 229 234 238 243 241 212 208 211 195 199 227 237 248 214 216 220 228 239 248 257 197 165 124 123 124 144 165 196 206 208 211 218 233 254 286 294
240 240 250 256 245 240 226 229 233 236 235 229 202 204 204 190 180 217 215 203 166 176 179 200 213 156 139 139 102 98 136 160 163 185 193 180 176 200 272 298 296 298 304
235 236 240 244 234 238 233 228 233 233 224 209 197 198 189 196 194 204 195 181 187 173 155 152 153 152 135 122 117 105 118 152 136 157 187 203 214 269 290 287 291 303 316
233 233 237 237 240 238 229 229 228 229 211 191 194 182 178 192 206 207 198 197 197 180 162 159 160 168 158 141 140 118 104 150 169 205 209 219 251 295 313 305 319 312 313
233 230 235 236 239 226 228 227 221 224 209 189 191 184 175 196 202 211 197 202 206 182 173 160 176 185 224 214 180 156 183 167 178 164 160 292 307 288 282 295 306 311 313
235 228 232 236 236 230 226 225 218 214 207 192 193 197 179 200 215 213 220 214 210 201 189 191 228 273 280 273 218 193 180 168 213 282 287 292 288 274 268 278 304 312 317
239 233 230 233 234 231 224 223 221 216 199 192 188 200 191 208 220 226 211 182 192 209 219 218 252 267 226 323 255 231 213 215 252 269 276 281 276 282 277 300 307 314 322
241 235 231 229 230 228 223 220 220 215 199 195 188 200 206 215 227 218 215 208 213 212 218 223 249 246 237 242 279 220 211 221 257 271 288 287 282 274 282 294 308 316 316
235 232 230 226 225 225 221 219 216 211 195 197 192 204 195 204 225 230 225 216 221 226 224 220 232 234 255 257 245 255 254 244 260 272 280 271 265 276 282 292 303 309 317
231 227 223 225 222 220 217 218 214 209 198 196 199 196 189 208 207 220 232 232 235 228 226 228 242 237 260 264 249 263 259 262 254 266 268 251 256 268 286 294 298 304 310
234 230 222 222 219 217 214 216 213 204 198 196 204 193 210 214 198 204 209 225 233 235 232 241 255 255 253 250 239 253 256 264 256 253 248 256 260 275 283 297 298 303 303
233 231 224 220 219 215 212 212 211 203 203 202 201 209 202 206 212 217 213 223 223 237 229 233 242 256 256 250 248 249 259 262 257 235 244 252 268 284 295 300 290 304 294
229 225 222 219 219 213 211 208 208 202 204 201 196 196 203 213 216 210 228 218 232 226 227 241 243 250 252 258 252 256 257 254 243 226 246 258 288 295 301 299 295 298 310
229 227 220 220 217 215 212 208 207 203 202 200 196 192 207 210 220 220 217 218 223 233 244 238 243 247 250 247 254 254 258 253 236 231 247 272 286 291 296 300 300 303 300
237 227 220 218 216 216 213 209 208 203 203 201 199 197 203 199 214 228 221 223 230 234 238 250 247 251 246 249 258 261 261 239 230 231 259 276 285 290 297 300 301 301 297
230 231 226 217 216 215 213 211 208 205 204 201 201 194 202 209 211 217 212 225 228 238 238 247 241 247 247 244 258 252 234 230 232 243 263 273 283 290 300 300 299 305 294
224 227 224 220 214 216 214 212 207 207 206 199 198 193 208 199 211 220 216 226 240 239 241 240 237 247 248 251 251 243 224 235 247 254 267 271 278 289 292 291 294 302 297
219 224 222 223 215 214 213 213 210 207 206 203 196 197 203 207 208 217 219 224 229 230 235 239 243 246 248 236 247 240 231 238 241 252 260 267 277 283 288 297 291 299 300
215 219 220 221 222 213 214 214 212 208 207 204 195 201 201 204 199 209 216 222 231 242 238 241 244 241 242 237 236 240 240 243 249 257 264 265 271 280 290 299 284 296 299
217 214 219 216 219 216 217 215 212 209 209 207 203 203 206 200 208 210 220 220 221 219 226 238 239 239 240 239 249 245 245 249 254 260 268 273 275 279 285 296 283 287 294
219 214 214 218 215 218 212 218 214 207 208 209 205 202 205 205 211 213 222 224 220 228 239 240 229 235 239 248 243 242 243 253 258 260 266 272 269 277 287 291 286 284 286
216 213 213 215 215 215 212 216 217 213 208 210 208 204 204 204 207 221 228 225 221 221 225 230 231 241 246 245 230 238 249 253 258 264 268 264 272 281 287 281 281 285 287
217 212 211 212 212 214 212 212 217 216 211 210 210 209 207 209 209 216 220 224 230 226 229 236 237 233 238 242 237 239 248 258 259 257 262 270 271 281 286 282 279 277 280
Height
10821 10821 10822 10823 10824 10827 10831 10836 10839 10842 10844 10844 10846 10847 10849 10849 10849 10848 10850 10852 10854 10856 10858 10860 10862 10863 10863 10864 10866 10867 10869 10869 10870 10871 10873 10875 10876 10877 10878 10879 10880 10882 10884
10813 10816 10817 10817 10819 10821 10826 10831 10834 10837 10840 10842 10843 10844 10846 10848 10848 10849 10850 10851 10853 10855 10857 10860 10862 10863 10863 10864 10865 10866 10866 10866 10868 10870 10872 10874 10876 10877 10878 10879 10881 10882 10883
10807 10808 10809 10812 10813 10817 10821 10825 10829 10832 10836 10839 10840 10841 10844 10845 10846 10849 10850 10851 10850 10852 10855 10859 10862 10863 10864 10865 10865 10864 10864 10865 10866 10868 10871 10873 10875 10876 10877 10879 10880 10881 10881
10804 10804 10804 10806 10809 10812 10817 10820 10823 10827 10832 10835 10837 10839 10842 10843 10844 10847 10848 10849 10849 10850 10852 10857 10861 10863 10864 10864 10865 10865 10865 10866 10867 10869 10872 10873 10874 10876 10877 10878 10878 10879 10880
10797 10798 10799 10801 10804 10808 10812 10815 10819 10824 10828 10831 10835 10838 10842 10843 10844 10846 10847 10849 10850 10851 10852 10856 10861 10863 10864 10865 10865 10865 10866 10867 10868 10870 10872 10873 10874 10876 10876 10877 10878 10878 10879
10791 10793 10794 10797 10800 10803 10808 10811 10815 10820 10823 10827 10832 10837 10840 10842 10844 10847 10848 10850 10851 10853 10854 10857 10861 10863 10864 10865 10866 10866 10866 10867 10868 10870 10871 10873 10874 10875 10875 10876 10877 10877 10877
10785 10787 10789 10793 10796 10799 10802 10806 10811 10816 10820 10824 10828 10833 10837 10841 10843 10844 10848 10851 10853 10854 10856 10859 10862 10864 10865 10866 10866 10867 10867 10868 10869 10870 10871 10872 10873 10874 10875 10875 10876 10876 10876
10777 10780 10783 10787 10791 10794 10797 10801 10806 10811 10817 10821 10826 10829 10833 10838 10841 10844 10848 10851 10853 10855 10858 10859 10862 10863 10864 10865 10866 10866 10867 10867 10868 10869 10870 10871 10871 10873 10873 10874 10874 10874 10874
10768 10773 10776 10780 10784 10788 10791 10796 10800 10805 10812 10818 10822 10826 10829 10835 10839 10842 10846 10849 10853 10855 10857 10858 10860 10860 10861 10864 10864 10865 10866 10867 10868 10869 10869 10870 10870 10871 10871 10872 10872 10872 10871
10759 10765 10769 10772 10777 10781 10786 10791 10796 10801 10806 10813 10819 10824 10829 10832 10835 10839 10843 10848 10851 10853 10854 10857 10857 10858 10860 10861 10862 10863 10865 10866 10867 10867 10868 10868 10868 10869 10869 10870 10870 10870 10869
10750 10757 10760 10764 10769 10774 10779 10784 10790 10796 10801 10809 10816 10822 10826 10829 10832 10836 10841 10845 10848 10850 10852 10856 10857 10857 10859 10860 10861 10862 10863 10864 10865 10865 10866 10866 10867 10867 10867 10867 10867 10867 10865
10740 10747 10749 10754 10760 10766 10772 10778 10785 10791 10796 10803 10811 10817 10821 10827 10828 10832 10836 10841 10845 10847 10850 10854 10855 10855 10857 10858 10860 10860 10861 10861 10862 10863 10863 10864 10864 10864 10864 10865 10864 10864 10863
10725 10734 10738 10743 10750 10757 10764 10771 10778 10785 10791 10797 10804 10811 10815 10821 10825 10829 10832 10836 10840 10843 10847 10850 10851 10853 10853 10855 10856 10857 10857 10858 10859 10860 10861 10862 10861 10861 10861 10862 10861 10860 10859
10713 10722 10727 10732 10739 10746 10754 10762 10770 10778 10785 10791 10797 10805 10811 10817 10820 10825 10828 10833 10835 10838 10843 10847 10847 10849 10849 10851 10851 10852 10853 10854 10855 10857 10858 10858 10858 10858 10858 10858 10857 10856 10855
10697 10708 10715 10721 10728 10736 10743 10752 10760 10769 10777 10785 10790 10799 10806 10809 10814 10819 10823 10827 10831 10836 10838 10843 10843 10844 10845 10847 10848 10848 10850 10851 10852 10854 10855 10855 10855 10854 10855 10854 10853 10852 10851
10678 10691 10702 10709 10717 10724 10732 10741 10750 10760 10768 10777 10784 10796 10800 10801 10809 10813 10818 10823 10827 10831 10834 10837 10839 10839 10841 10843 10843 10844 10846 10847 10848 10850 10851 10851 10850 10850 10850 10850 10849 10848 10847
10665 10683 10694 10699 10707 10714 10723 10731 10739 10750 10759 10769 10777 10786 10793 10802 10803 10807 10811 10816 10820 10824 10828 10831 10833 10834 10836 10839 10839 10840 10841 10843 10845 10846 10846 10847 10846 10846 10846 10845 10844 10843 10842
10663 10671 10680 10691 10699 10708 10715 10723 10732 10741 10751 10760 10768 10777 10786 10791 10794 10798 10805 10809 10813 10817 10822 10826 10828 10829 10831 10834 10834 10834 10836 10838 10839 10841 10842 10842 10842 10841 10841 10840 10839 10838 10838
10653 10665 10678 10684 10687 10696 10706 10716 10724 10731 10740 10750 10760 10769 10778 10785 10788 10791 10797 10803 10805 10809 10814 10818 10821 10822 10825 10828 10829 10828 10830 10832 10834 10836 10836 10837 10836 10836 10835 10835 10834 10833 10832
10642 10648 10663 10669 10679 10688 10696 10703 10712 10720 10729 10738 10748 10759 10767 10775 10779 10783 10789 10795 10798 10802 10806 10810 10813 10815 10819 10823 10824 10823 10825 10828 10829 10831 10831 10832 10831 10831 10831 10830 10829 10828 10827
10621 10628 10644 10657 10666 10676 10685 10693 10701 10707 10717 10730 10739 10749 10753 10763 10769 10776 10781 10787 10791 10794 10797 10802 10807 10810 10813 10818 10819 10819 10820 10822 10823 10825 10826 10826 10826 10825 10826 10825 10824 10823 10821
10598 10616 10624 10643 10655 10668 10676 10684 10693 10704 10712 10722 10732 10739 10749 10751 10758 10766 10772 10777 10782 10783 10789 10794 10798 10802 10806 10811 10813 10814 10814 10816 10817 10818 10820 10820 10820 10820 10820 10819 10819 10817 10816
10579 10594 10607 10621 10635 10653 10665 10672 10683 10695 10705 10716 10721 10729 10737 10747 10755 10760 10764 10769 10772 10775 10778 10784 10790 10794 10798 10804 10807 10808 10808 10809 10810 10812 10814 10813 10814 10815 10814 10813 10812 10811 10809
10556 10577 10590 10603 10618 10631 10646 10659 10669 10679 10689 10696 10707 10717 10728 10740 10748 10752 10756 10759 10764 10767 10771 10776 10780 10785 10791 10796 10799 10800 10802 10803 10803 10804 10807 10809 10808 10808 10807 10805 10805 10804 10802
10531 10554 10572 10584 10603 10616 10634 10647 10662 10674 10680 10687 10699 10707 10714 10725 10736 10741 10746 10751 10755 10759 10761 10767 10773 10778 10782 10789 10791 10793 10795 10796 10796 10798 10798 10800 10801 10801 10800 10799 10798 10797 10794
10506 10531 10552 10565 10580 10600 10615 10636 10649 10662 10672 10677 10687 10698 10703 10711 10724 10730 10736 10738 10745 10750 10755 10758 10762 10771 10776 10780 10783 10786 10787 10788 10789 10791 10790 10790 10792 10794 10791 10790 10791 10791 10789